SL-3 DEB

基本信息
目录编号:
24893
目录名称:
SL-3 DEB
国际标识:
1988-032C
轨道中心:
EARTH
物体状态:
在轨
发射日期:
1988-04-20 UTC
轨道信息
数据来源: 国际轨道数据
星历时间: 2026-07-13T18:22:13+0800
半长轴: 6924.926km
偏心率: 0.0025022
轨道倾角: 97.636°
近地点辐角: 98.184°
升交点赤经: 165.878°
平近点角: 21.889°
近地点: 529.461km
远地点: 564.117km
周期: 95.583分钟
每日圈数: 15.06538
详细信息
发射场:
TTMTR
轨道高度:
LEO
数据来源:
AOE Integration Group
参考系:
TEME
时间系统:
UTC
历元类型:
SGP4
2D轨道图
3D轨道图
轨道高度分析图
轨道倾角分析图
轨道综合分析图
查看轨道综合分析图